Terminal Aerodrome Forecast
Issued by NWS Houston/Galveston TX

Home | Current Version | Previous Version | Text Only | Print | Product List | Glossary On
Versions: 1 2 3 4 5 6 7 8 9 10 11 12 13 14 15 16 17 18 19 20 21 22 23 24 25 26 27 28 29 30 31 32 33 34 35 36 37 38 39 40 41 42 43 44 45 46 47 48
000
FTUS44 KHGX 291120
TAFHOU
TAF
KHOU 291120Z 2912/3012 13003KT P6SM BKN020 WS013/21035KT
      TEMPO 2912/2916 SCT020
     FM291600 18014G24KT P6SM FEW025
     FM300200 18007KT P6SM SCT250
     FM300700 18003KT P6SM SCT007 BKN015=

USA.gov is the U.S. government's official web portal to all federal, state and local government web resources and services.